TimeCDT,TemperatureF,Dew PointF,Humidity,Sea Level PressureIn,VisibilityMPH,Wind Direction,Wind SpeedMPH,Gust SpeedMPH,PrecipitationIn,Events,Conditions,WindDirDegrees,DateUTC
12:15 AM,41.0,35.6,81,29.88,10.0,Calm,Calm,-,N/A,,Mostly Cloudy,0,2012-10-16 05:15:00
12:35 AM,41.0,37.4,87,29.87,10.0,SSE,3.5,-,N/A,,Overcast,160,2012-10-16 05:35:00
12:55 AM,41.0,37.4,87,29.87,10.0,South,4.6,-,N/A,,Overcast,170,2012-10-16 05:55:00
1:15 AM,41.0,37.4,87,29.87,10.0,SE,4.6,-,N/A,,Overcast,140,2012-10-16 06:15:00
1:35 AM,41.0,37.4,87,29.87,10.0,SE,4.6,-,N/A,,Overcast,140,2012-10-16 06:35:00
1:55 AM,41.0,37.4,87,29.86,10.0,SE,4.6,-,N/A,,Overcast,130,2012-10-16 06:55:00
2:15 AM,41.0,37.4,87,29.86,10.0,SE,5.8,-,N/A,,Overcast,140,2012-10-16 07:15:00
2:35 AM,41.0,37.4,87,29.85,10.0,SSE,4.6,-,N/A,,Overcast,150,2012-10-16 07:35:00
2:55 AM,41.0,37.4,87,29.84,10.0,SSE,3.5,-,N/A,,Mostly Cloudy,150,2012-10-16 07:55:00
3:15 AM,41.0,37.4,87,29.83,10.0,SE,5.8,-,N/A,Rain,Light Rain,130,2012-10-16 08:15:00
3:35 AM,41.0,37.4,87,29.82,10.0,SE,5.8,-,N/A,,Overcast,140,2012-10-16 08:35:00
3:55 AM,42.8,37.4,81,29.81,10.0,SE,5.8,-,N/A,,Overcast,130,2012-10-16 08:55:00
4:15 AM,42.8,37.4,81,29.82,10.0,SE,4.6,-,N/A,,Light Drizzle,140,2012-10-16 09:15:00
4:35 AM,42.8,39.2,87,29.82,10.0,SE,3.5,-,N/A,Rain,Light Rain,130,2012-10-16 09:35:00
4:55 AM,42.8,39.2,87,29.82,10.0,SE,4.6,-,N/A,,Light Drizzle,130,2012-10-16 09:55:00
5:15 AM,42.8,39.2,87,29.81,10.0,SE,5.8,-,N/A,,Overcast,130,2012-10-16 10:15:00
5:35 AM,42.8,39.2,87,29.80,10.0,ESE,5.8,-,N/A,,Overcast,120,2012-10-16 10:35:00
5:45 AM,44.6,39.2,81,29.80,10.0,SE,5.8,-,N/A,,Overcast,130,2012-10-16 10:45:00
7:45 AM,44.6,41.0,87,29.76,10.0,SSE,8.1,-,N/A,,Mostly Cloudy,150,2012-10-16 12:45:00
9:45 AM,48.2,42.8,82,29.72,10.0,SE,8.1,-,N/A,,Clear,140,2012-10-16 14:45:00
10:45 AM,53.6,42.8,67,29.69,10.0,SSE,16.1,21.9,N/A,,Clear,160,2012-10-16 15:45:00
12:50 PM,55.4,44.6,67,29.64,10.0,SSE,11.5,17.3,N/A,Rain,Light Rain,160,2012-10-16 17:50:00
1:45 PM,59.0,44.6,59,29.62,10.0,SSE,9.2,-,N/A,,Scattered Clouds,160,2012-10-16 18:45:00
2:55 PM,60.8,46.4,59,29.59,10.0,South,4.6,-,N/A,,Scattered Clouds,170,2012-10-16 19:55:00
3:50 PM,62.6,44.6,52,29.55,10.0,SSE,10.4,18.4,N/A,,Scattered Clouds,150,2012-10-16 20:50:00
4:55 PM,62.6,44.6,52,29.51,10.0,SE,12.7,20.7,N/A,,Clear,140,2012-10-16 21:55:00
5:45 PM,60.8,44.6,55,29.49,10.0,SE,12.7,23.0,N/A,,Scattered Clouds,140,2012-10-16 22:45:00
6:45 PM,57.2,44.6,63,29.51,10.0,SE,9.2,23.0,N/A,,Scattered Clouds,140,2012-10-16 23:45:00
7:45 PM,57.2,46.4,67,29.51,10.0,SE,8.1,-,N/A,,Clear,130,2012-10-17 00:45:00
8:52 PM,55.4,46.4,72,29.50,10.0,East,9.2,-,N/A,,Clear,100,2012-10-17 01:52:00
9:50 PM,53.6,46.4,77,29.48,10.0,ESE,10.4,-,N/A,,Clear,120,2012-10-17 02:50:00
10:35 PM,51.8,46.4,82,29.48,10.0,ESE,6.9,-,N/A,,Clear,120,2012-10-17 03:35:00
10:55 PM,50.0,44.6,82,29.48,10.0,ESE,6.9,-,N/A,,Clear,110,2012-10-17 03:55:00
11:15 PM,50.0,46.4,87,29.48,10.0,ESE,4.6,-,N/A,,Mostly Cloudy,110,2012-10-17 04:15:00
11:55 PM,50.0,46.4,87,29.46,10.0,ESE,8.1,-,N/A,,Mostly Cloudy,110,2012-10-17 04:55:00